Hourly Data Report for November 05, 1991

All times are specified in Local Standard Time (LST). Add 1 hour to adjust for Daylight Saving Time where and when it is observed.

Metadata including Station Name, Province, Latitude, Longitude, Elevation, Climate ID, WMO ID, TC ID
RESOLUTE CARS
NUNAVUT
Latitude: 74°43'01.000" N Longitude: 94°58'10.000" W Elevation: 67.70 m
Climate ID: 2403500 WMO ID: 71924 TC ID: YRB
Hourly Data Report for November 5, 1991
Temp Definition
°C

Dew Point Temp Definition
°C

Rel Hum Definition
%

Wind Dir Definition
10's deg
Wind Spd Definition
km/h

Visibility Definition
km

Stn Press Definition
kPa

Hmdx Definition

Wind Chill Definition

Weather Definition

TIME
00:00 -26.6 -31.5 63 35 20 24.1 99.85 -39 Clear
01:00 -24.9 -29.2 67 36 17 24.1 99.68 -36 Clear
02:00 -24.4 -28.3 70 36 7 24.1 99.68 -31 Clear
03:00 -24.2 -28.6 67 36 20 24.1 99.58 -36 Clear
04:00 -24.0 -28.4 67 36 22 24.1 99.52 -36 Clear
05:00 -22.0 -25.2 75 31 17 24.1 99.42 -32 Mostly Cloudy
06:00 -23.2 -26.3 76 32 15 24.1 99.38 -33 Mainly Clear
07:00 -22.6 -25.9 75 33 15 24.1 99.35 -32 Mainly Clear
08:00 -21.9 -26.0 70 33 17 24.1 99.28 -32 Mainly Clear
09:00 -22.8 -26.5 72 30 13 24.1 99.28 -32 Mainly Clear
10:00 -22.6 -26.2 73 31 11 24.1 99.21 -31 Mainly Clear
11:00 -22.3 -26.0 72 32 11 24.1 99.18 -30 Mainly Clear
12:00 -22.3 -26.1 71 33 15 24.1 99.15 -32 Mainly Clear
13:00 -22.7 -26.2 73 33 19 24.1 99.15 -34 Mainly Clear
14:00 -20.4 -25.2 66 0 24.1 99.08 Mainly Clear
15:00 -21.7 -25.4 72 30 13 24.1 99.11 -30 Mostly Cloudy
16:00 -21.3 -25.0 72 29 17 24.1 99.11 -31 Mostly Cloudy
17:00 -21.9 -25.5 73 32 11 24.1 99.08 -30 Mainly Clear
18:00 -22.6 -26.4 72 35 13 24.1 99.08 -32 Mostly Cloudy
19:00 -20.3 -23.7 74 33 4 24.1 99.05 -24 Mostly Cloudy
20:00 -19.4 -22.6 76 0 24.1 98.98 Cloudy
21:00 -20.6 -23.9 75 33 6 24.1 98.98 -26 Cloudy
22:00 -20.4 -23.9 74 36 11 24.1 98.98 -28 Cloudy
23:00 -18.2 -21.0 79 2 11 16.1 98.98 -25 Snow Grains

Notes on Data Quality.

Legend
  • E = Estimated
  • M = Missing
  • NA = Not Available
  • ‡ = Partner data that is not subject to review by the National Climate Archives